Cortez, CO

6:52 PM MST on November 15, 2019 (GMT -0700)
Cortez Municipal

Weather History for KCEZ - September, 2019

Change the Weather History Date:

Saturday, September 7, 2019

  Actual Average Record
Temperature  
Mean Temperature 72 °F 64 °F  
Max Temperature 90 °F 81 °F 91 °F (2013)
Min Temperature 54 °F 46 °F 37 °F (2010)
Degree Days  
Heating Degree Days 0 3  
Month to date heating degree days 0 14  
Since 1 July heating degree days 0 26  
Cooling Degree Days 7 1  
Month to date cooling degree days 55 10  
Year to date cooling degree days 535 419  
Growing Degree Days 22 (Base 50)    
Moisture  
Dew Point 45 °F    
Average Humidity 45    
Maximum Humidity 71    
Minimum Humidity 19    
Precipitation  
Precipitation T in 0.05 in 0.61 in (2002)
Month to date precipitation 0.07 0.35  
Year to date precipitation 9.85 8.79  
Sea Level Pressure  
Sea Level Pressure 29.95 in    
Wind  
Wind Speed 6 mph (ESE)    
Max Wind Speed 18 mph    
Max Gust Speed 24 mph    
Visibility 10 miles    
Events Rain , Thunderstorm    
T = Trace of Precipitation, MM = Missing Value Source: NWS Daily Summary

Daily Weather History Graph

Daily Weather History Graph

Search for Another Location

Airport or City:

Astronomy

Sep. 07, 2019 Rise Set
Actual Time 6:49 AM MDT 7:34 PM MDT
Civil Twilight 6:23 AM MDT 8:00 PM MDT
Nautical Twilight 5:52 AM MDT 8:32 PM MDT
Astronomical Twilight 5:20 AM MDT 9:04 PM MDT
Moon 3:47 PM MDT (9/7) 12:50 AM MDT (9/7)
Length of Visible Light 13h 37m
Length of Day
12h 44m
Waxing Gibbous, 66% of the Moon is Illuminated
Sep 7
Waxing Gibbous
Sep 13
Full
Sep 21
Last Quarter
Sep 28
New
Oct 5
First Quarter

Hourly Weather History & Observations

Time (MDT) Temp. Dew Point Humidity Pressure Visibility Wind Dir Wind Speed Gust Speed Precip Events Conditions
12:53 AM 68.0 °F 44.1 °F 42% 29.92 in 10.0 mi NE 6.9 mph - N/A   Mostly Cloudy
1:53 AM 64.9 °F 44.1 °F 47% 29.93 in 10.0 mi Variable 3.5 mph - N/A   Clear
2:53 AM 60.1 °F 44.1 °F 55% 29.95 in 10.0 mi Calm Calm - N/A   Clear
3:53 AM 55.9 °F 45.0 °F 67% 29.95 in 10.0 mi Calm Calm - N/A   Clear
4:53 AM 54.0 °F 44.1 °F 69% 29.97 in 10.0 mi SE 4.6 mph - N/A   Clear
5:53 AM 55.9 °F 44.1 °F 64% 29.98 in 10.0 mi ENE 5.8 mph - N/A   Mostly Cloudy
6:53 AM 55.9 °F 43.0 °F 62% 30.00 in 10.0 mi East 8.1 mph - N/A   Scattered Clouds
7:53 AM 63.0 °F 44.1 °F 50% 30.05 in 10.0 mi Calm Calm - N/A   Scattered Clouds
8:53 AM 66.9 °F 46.0 °F 47% 30.03 in 10.0 mi West 3.5 mph - N/A   Clear
9:53 AM 78.1 °F 46.9 °F 33% 29.99 in 10.0 mi Calm Calm - N/A   Clear
10:53 AM 81.0 °F 46.9 °F 30% 29.97 in 10.0 mi Calm Calm - N/A   Clear
11:53 AM 84.0 °F 45.0 °F 25% 29.94 in 10.0 mi Variable 4.6 mph - N/A   Clear
12:53 PM 87.1 °F 46.0 °F 24% 29.90 in 10.0 mi SSE 8.1 mph - N/A   Clear
1:53 PM 88.0 °F 46.0 °F 23% 29.88 in 10.0 mi South 10.4 mph 17.3 mph N/A   Clear
2:53 PM 90.0 °F 46.0 °F 22% 29.87 in 10.0 mi SSW 13.8 mph 21.9 mph N/A   Clear
3:53 PM 89.1 °F 42.1 °F 19% 29.86 in 10.0 mi Variable 6.9 mph - N/A   Clear
4:53 PM 87.1 °F 45.0 °F 23% 29.85 in 10.0 mi NNE 10.4 mph - N/A   Partly Cloudy
5:53 PM 84.9 °F 43.0 °F 23% 29.84 in 10.0 mi NNE 12.7 mph - N/A   Partly Cloudy
6:53 PM 81.0 °F 44.1 °F 27% 29.85 in 10.0 mi North 4.6 mph - N/A   Mostly Cloudy
7:38 PM 78.1 °F 46.0 °F 32% 30.08 in 10.0 mi SSE 10.4 mph - N/A Thunderstorm Scattered Clouds
7:53 PM 78.1 °F 46.0 °F 32% 29.85 in 10.0 mi SSE 15.0 mph 21.9 mph N/A   Mostly Cloudy
8:24 PM 75.0 °F 46.9 °F 37% 30.10 in 10.0 mi WNW 5.8 mph - N/A Thunderstorm Mostly Cloudy
8:53 PM 75.9 °F 46.9 °F 36% 29.87 in 10.0 mi North 3.5 mph - N/A Thunderstorm Mostly Cloudy
9:04 PM 75.0 °F 46.9 °F 37% 30.12 in 10.0 mi Calm Calm - N/A   Overcast
9:27 PM 75.9 °F 45.0 °F 33% 30.12 in 10.0 mi WNW 11.5 mph 20.7 mph 0.00 in Rain , Thunderstorm Light Rain
9:53 PM 79.0 °F 39.0 °F 24% 29.82 in 10.0 mi North 13.8 mph 24.2 mph 0.00 in Thunderstorm Overcast
10:24 PM 75.9 °F 46.0 °F 35% 30.11 in 10.0 mi SSE 13.8 mph - N/A   Scattered Clouds
10:53 PM 72.0 °F 46.0 °F 40% 29.83 in 10.0 mi West 8.1 mph - N/A Thunderstorm Clear
11:11 PM 72.0 °F 43.0 °F 35% 30.11 in 10.0 mi South 4.6 mph - N/A   Partly Cloudy
11:53 PM 71.1 °F 45.0 °F 39% 29.83 in 10.0 mi Calm Calm - N/A   Mostly Cloudy